Location: Buckland
(65.9785°N, 161.1281°W)
Time: 18:54:51
(UTC+00:00)

Vanguard 2 Rocket - Pass Details

Date: 02 December 2020
Orbit: 554 x 3326 km, 32.9° (Epoch: 14 January)

Event Time Altitude Azimuth Distance (km) Brightness Sun altitude
Rises 18:15:32 0° 214° (SW) 7,158 11.4 -10.5°
Reaches altitude 10° 18:23:12 10° 198° (SSW) 6,278 11.4 -9.8°
Maximum altitude 18:33:07 16° 168° (SSE) 5,632 11.6 -9.0°
Drops below altitude 10° 18:42:22 10° 137° (SE) 5,793 12.6 -8.3°
Sets 18:48:51 0° 120° (ESE) 6,376 13.4 -7.7°
